Location: Newark
(38.1089°N, 103.8675°W)
Time: 05:01:38
(UTC+00:00)

Envisat - Pass Details

Date: 20 December 2019
Orbit: 764 x 766 km, 98.1° (Epoch: 20 January)

Event Time Altitude Azimuth Distance (km) Brightness Sun altitude
Rises 01:20:03 0° 181° (S) 3,217 6.4 -19.3°
Reaches altitude 10° 01:22:25 10° 187° (S) 2,295 5.7 -19.8°
Maximum altitude 01:27:17 47° 261° (W) 1,013 4.0 -20.7°
Drops below altitude 10° 01:32:11 10° 335° (NNW) 2,310 5.6 -21.7°
Sets 01:34:35 0° 341° (NNW) 3,240 6.3 -22.1°
